Change the Weather History Date:

Monday, September 2, 2013

  Actual Average Record
Temperature  
Mean Temperature 67 °F -  
Max Temperature 79 °F 84 °F 106 °F (2000)
Min Temperature 55 °F 60 °F 46 °F (2006)
Cooling Degree Days 2    
Growing Degree Days 17 (Base 50)    
Moisture  
Dew Point 57 °F    
Average Humidity 76    
Maximum Humidity 93    
Minimum Humidity 44    
Precipitation  
Precipitation 0.01 in - - ()
Sea Level Pressure  
Sea Level Pressure 30.05 in    
Wind  
Wind Speed 4 mph (North)    
Max Wind Speed 8 mph    
Max Gust Speed -    
Visibility 10 miles    
Events      
Averages and records for this station are not official NWS values.
T = Trace of Precipitation, MM = Missing Value Source: NWS Daily Summary

Daily Weather History Graph

Daily Weather History Graph

Search for Another Location

Airport or City:

Trip Planner

Search our weather history database for the weather conditions in past years. The results will help you decide how hot, cold, wet, or windy it might be!

Date:

Astronomy

Sep. 02, 2013 Rise Set
Actual Time 6:51 AM CDT 7:55 PM CDT
Civil Twilight 6:23 AM CDT 8:24 PM CDT
Nautical Twilight 5:49 AM CDT 8:58 PM CDT
Astronomical Twilight 5:13 AM CDT 9:33 PM CDT
Moon 4:08 AM CDT (9/2) 6:11 PM CDT (9/2)
Length of Visible Light 14h 01m
Length of Day
13h 04m
Waning Crescent, 8% of the Moon is Illuminated
Sep 2
Waning Crescent
Sep 5
New
Sep 12
First Quarter
Sep 19
Full
Sep 26
Last Quarter

Hourly Weather History & Observations

Time (CDT) Temp. Dew Point Humidity Pressure Visibility Wind Dir Wind Speed Gust Speed Precip Events Conditions
12:54 AM 62.1 °F 60.1 °F 93% 30.01 in 10.0 mi NNW 5.8 mph - N/A   Clear
1:54 AM 61.0 °F 59.0 °F 93% 30.01 in 10.0 mi NNW 4.6 mph - N/A   Clear
2:54 AM 60.1 °F 57.9 °F 93% 30.01 in 10.0 mi NNW 4.6 mph - N/A   Clear
3:54 AM 59.0 °F 57.0 °F 93% 30.02 in 10.0 mi North 4.6 mph - N/A   Clear
4:54 AM 57.0 °F 55.0 °F 93% 30.03 in 10.0 mi Calm Calm - N/A   Clear
5:54 AM 55.9 °F 54.0 °F 93% 30.04 in 10.0 mi NNW 3.5 mph - N/A   Clear
6:54 AM 55.9 °F 54.0 °F 93% 30.06 in 7.0 mi Calm Calm - N/A   Clear
7:54 AM 59.0 °F 55.9 °F 90% 30.08 in 10.0 mi North 3.5 mph - N/A   Clear
8:54 AM 63.0 °F 57.9 °F 84% 30.08 in 10.0 mi North 6.9 mph - 0.01 in   Clear
9:11 AM 62.6 °F 57.2 °F 82% 30.11 in 10.0 mi North 5.8 mph - N/A   Partly Cloudy
9:34 AM 64.4 °F 57.2 °F 77% 30.12 in 10.0 mi NNE 8.1 mph - N/A   Mostly Cloudy
9:54 AM 64.9 °F 57.9 °F 78% 30.10 in 10.0 mi North 6.9 mph - N/A   Scattered Clouds
10:54 AM 69.1 °F 57.0 °F 65% 30.10 in 10.0 mi Variable 5.8 mph - N/A   Clear
11:54 AM 72.0 °F 57.0 °F 59% 30.09 in 10.0 mi Variable 6.9 mph - N/A   Clear
12:54 PM 75.0 °F 57.9 °F 55% 30.07 in 10.0 mi North 4.6 mph - N/A   Clear
1:54 PM 77.0 °F 54.0 °F 45% 30.06 in 10.0 mi North 5.8 mph - N/A   Clear
2:54 PM 77.0 °F 55.0 °F 47% 30.04 in 10.0 mi Calm Calm - N/A   Clear
3:54 PM 78.1 °F 55.9 °F 46% 30.03 in 10.0 mi Variable 3.5 mph - N/A   Clear
4:54 PM 79.0 °F 55.0 °F 44% 30.02 in 10.0 mi NNE 6.9 mph - N/A   Clear
5:54 PM 78.1 °F 55.9 °F 46% 30.01 in 10.0 mi NNW 3.5 mph - N/A   Clear
6:54 PM 75.9 °F 57.9 °F 54% 30.01 in 10.0 mi North 3.5 mph - N/A   Clear
7:54 PM 66.9 °F 61.0 °F 81% 30.01 in 10.0 mi NNE 3.5 mph - N/A   Clear
8:54 PM 63.0 °F 59.0 °F 87% 30.02 in 10.0 mi NW 4.6 mph - N/A   Clear
9:54 PM 59.0 °F 57.0 °F 93% 30.04 in 10.0 mi Calm Calm - N/A   Clear
10:54 PM 57.0 °F 55.0 °F 93% 30.03 in 10.0 mi Calm Calm - N/A   Clear
11:54 PM 55.9 °F 54.0 °F 93% 30.03 in 10.0 mi Calm Calm - N/A   Clear